Wind_Speed
13 9 9 10 11 11 12 12 6 6 6 8 6 6 6 7 5 8 9 10 11 8 6 7 5 2 7 11 15 20 20 20 22 23 22 21 21 20 20 20 20 19 19 19 20 19 17 17 16 16 15 15 14 14 15 15 14 14 14 14 14 14 13 13 13 12 11 10 10 11 10 10 9 9 10 9 9 8 8 10 10 10 11 10 11 11
12 10 11 14 13 11 13 13 8 8 9 5 8 5 6 6 4 7 8 9 9 6 5 7 7 5 7 8 14 20 18 18 21 22 23 22 21 20 19 20 20 19 19 20 21 20 19 18 17 16 16 16 15 15 15 15 14 14 14 14 14 13 13 13 13 13 12 10 10 10 10 10 10 10 10 9 9 9 9 10 11 10 10 10 10 11
10 11 13 14 12 10 9 10 9 10 12 5 5 5 4 4 5 5 7 9 8 3 4 8 9 6 4 8 12 18 17 16 20 22 22 23 21 21 20 20 20 20 20 21 21 21 20 19 18 17 17 16 16 16 15 15 15 14 14 14 13 13 12 12 12 12 11 11 10 9 8 9 10 10 9 9 9 9 9 10 10 10 11 10 10 10
8 11 15 13 11 9 6 7 8 8 10 4 6 5 4 6 4 2 6 10 8 4 5 8 6 2 1 7 11 16 18 17 19 20 21 22 21 21 21 21 21 21 22 22 22 21 21 20 19 18 17 17 16 16 16 16 15 15 14 14 13 13 13 12 13 13 11 12 14 13 11 9 10 10 10 10 9 8 9 9 9 10 11 10 9 10
9 13 15 13 10 8 8 11 10 7 8 4 8 5 5 8 4 1 7 10 8 6 8 9 4 0 1 6 8 10 15 17 19 20 20 21 21 21 21 21 21 21 22 22 22 21 21 20 19 18 18 18 17 16 17 16 15 15 14 14 14 13 13 13 14 14 13 13 15 16 15 12 12 11 10 10 10 10 10 10 9 10 11 10 9 10
11 10 12 13 10 8 11 13 10 8 8 5 8 5 7 10 5 7 11 10 7 6 10 10 6 3 3 7 7 6 8 14 18 20 20 21 21 21 21 21 21 21 21 21 22 21 21 21 19 18 18 18 17 17 16 16 15 15 15 14 13 14 13 13 14 14 13 13 13 13 14 12 12 11 10 10 10 10 10 9 9 10 10 11 10 10
8 7 8 11 10 11 13 11 9 9 8 4 7 6 12 14 10 11 12 8 4 4 8 9 4 3 4 7 8 7 6 10 16 19 20 22 22 22 22 21 22 21 21 21 21 21 21 21 20 19 19 18 17 17 16 16 15 15 15 14 13 13 13 14 14 13 12 12 12 12 10 10 10 10 10 9 9 10 9 9 10 10 11 11 10 9
8 9 10 11 9 11 11 9 7 9 8 1 3 5 11 13 11 12 11 5 2 4 6 6 1 3 3 6 8 10 9 11 15 17 18 21 22 22 22 22 22 22 21 21 21 21 21 21 21 19 19 18 17 17 17 17 16 16 16 15 14 13 13 13 13 13 12 13 13 12 9 9 9 9 10 10 9 9 9 9 10 10 10 11 10 10
10 7 8 12 12 9 9 11 7 7 9 1 2 3 7 11 8 8 7 4 3 4 5 6 4 2 2 3 6 10 11 12 14 16 17 21 22 23 23 22 23 23 21 22 21 22 22 21 20 19 19 18 18 18 18 17 17 17 16 16 15 13 13 13 13 13 12 13 14 12 9 10 9 9 11 11 10 10 10 10 11 10 10 10 10 10
7 7 6 10 12 8 10 12 5 5 7 2 2 4 7 12 10 6 4 4 2 3 4 10 10 5 2 4 6 8 10 10 11 14 16 21 23 23 24 23 23 23 22 21 21 21 21 21 20 20 19 18 18 18 18 17 18 18 17 17 16 14 13 12 12 13 12 13 14 12 10 11 10 10 11 10 10 12 12 11 11 11 10 9 9 9
4 8 7 7 11 9 11 12 6 5 6 2 2 5 4 9 11 6 2 4 2 2 2 9 13 8 2 4 9 8 9 11 10 12 16 21 24 24 24 24 23 23 22 22 21 21 21 20 20 20 19 19 18 18 18 18 18 18 18 17 17 15 13 12 12 13 12 12 14 13 12 11 11 11 11 11 11 11 12 11 10 10 10 9 9 8
4 7 6 8 12 11 11 10 5 4 6 4 4 4 4 6 7 4 2 2 3 1 1 7 13 10 4 4 7 8 11 15 12 11 15 19 23 25 24 24 24 23 23 22 22 22 21 21 20 20 20 20 19 18 18 18 18 18 18 18 17 16 14 13 13 13 13 13 13 14 13 12 11 11 11 11 10 10 10 10 9 9 9 9 9 9
7 7 8 10 13 12 9 5 5 6 8 7 4 5 6 5 5 3 4 4 3 2 3 8 10 8 4 4 8 11 12 14 14 14 18 21 24 26 24 24 24 23 23 23 23 23 22 22 21 20 21 20 20 19 18 18 18 18 18 18 18 17 15 14 14 13 13 13 13 13 13 13 12 11 11 11 10 10 10 9 9 9 10 10 10 10
7 7 10 11 12 13 10 6 6 8 9 9 6 6 6 5 5 5 4 4 4 3 6 11 10 6 2 3 8 14 16 18 19 17 19 24 26 26 24 24 24 24 24 23 23 23 23 22 22 21 21 21 20 19 18 17 17 17 17 18 18 17 16 15 14 14 14 14 13 13 13 13 12 11 10 9 9 8 9 9 9 8 8 9 9 9
9 7 11 12 9 12 14 13 9 6 8 10 8 6 6 5 4 4 3 2 2 4 4 7 7 2 1 3 6 11 17 21 17 13 12 17 22 23 24 24 24 24 24 24 24 24 23 23 22 21 21 21 20 20 19 17 17 17 17 18 19 18 17 16 15 15 15 14 13 13 14 13 11 11 10 9 9 9 8 8 8 8 8 8 8 9
11 8 11 16 13 12 15 16 13 10 7 8 8 7 7 6 5 5 3 2 2 3 2 2 2 1 2 5 5 9 14 14 11 10 10 11 15 21 23 23 24 24 24 24 24 24 24 24 23 21 20 20 20 20 19 18 17 17 17 18 19 18 18 17 16 16 15 15 13 13 14 13 12 11 10 11 12 10 9 8 9 9 9 8 8 9
9 5 8 15 14 12 13 15 14 11 5 4 8 9 7 7 6 6 3 3 3 3 3 5 4 5 4 5 7 10 11 10 8 11 12 10 12 19 23 23 23 24 24 25 25 24 24 24 24 22 21 20 21 20 20 19 18 17 17 17 18 18 18 18 17 17 16 16 14 13 14 13 12 12 11 11 11 10 9 10 9 9 9 9 8 9
6 5 9 12 13 11 11 13 15 14 9 4 6 7 8 8 6 4 4 4 5 3 3 5 5 6 5 4 8 11 13 12 12 13 15 15 14 16 21 23 23 24 24 24 25 25 24 24 23 23 22 21 21 20 20 19 19 18 17 17 18 18 18 18 18 17 17 16 15 14 14 14 13 12 11 10 9 9 9 9 9 9 10 9 9 9
5 6 8 10 11 10 11 11 12 14 15 11 7 4 6 8 6 6 5 5 6 3 1 4 6 6 3 3 9 12 13 15 16 15 16 18 17 15 19 23 23 24 25 25 25 25 25 24 24 23 22 21 21 20 20 20 19 19 18 17 17 18 18 18 17 17 17 16 16 15 15 15 14 13 12 10 9 9 9 9 9 9 10 9 10 10
4 7 4 8 10 11 10 9 9 10 14 15 10 5 6 6 5 6 5 5 5 2 2 3 4 2 2 4 10 12 13 15 15 15 15 19 22 19 17 21 24 24 25 27 26 25 25 25 24 24 22 21 21 20 20 20 20 19 18 18 18 17 18 17 17 18 17 17 16 15 15 16 15 14 13 11 10 10 10 10 9 9 9 9 9 10
4 7 3 5 9 10 9 8 10 9 10 11 10 8 7 6 6 5 5 6 6 4 3 2 2 3 3 3 8 11 12 13 13 14 13 17 23 22 18 18 22 24 23 26 27 25 25 25 24 24 22 21 20 20 19 20 20 19 19 18 18 18 18 18 17 18 18 17 16 16 15 15 16 15 14 12 13 12 11 11 10 10 9 9 9 10
4 7 5 4 6 8 8 9 12 12 9 9 9 8 8 7 7 6 6 6 6 6 4 2 1 2 3 0 4 8 9 10 13 13 12 14 19 22 20 15 17 21 21 22 26 26 25 25 24 23 22 21 21 20 20 20 20 20 19 19 19 18 18 18 18 18 18 17 17 16 16 15 15 16 15 14 14 14 13 12 12 12 11 10 10 10
2 6 7 5 4 7 9 11 13 14 12 10 9 10 9 8 7 6 7 6 6 6 5 4 2 3 3 2 5 8 7 9 15 15 14 16 19 22 21 15 14 19 21 20 23 25 25 24 23 23 22 20 21 21 21 20 20 20 19 19 19 19 19 19 18 17 17 17 17 17 16 16 16 16 16 16 15 15 14 13 13 13 13 12 11 11
1 5 6 7 5 5 9 10 13 14 12 9 8 10 10 10 9 9 7 5 5 6 5 5 3 3 3 3 5 10 11 10 14 17 16 16 17 19 22 19 15 18 21 22 22 23 23 23 23 22 21 19 20 20 21 21 19 19 19 19 20 20 20 19 18 17 18 17 17 17 17 16 16 16 16 17 16 15 15 14 14 14 13 13 12 12
2 6 5 7 6 7 9 7 8 10 9 7 8 10 12 13 13 11 7 4 6 6 7 5 2 3 4 4 4 8 12 11 12 15 15 16 18 19 21 21 18 16 17 17 17 19 21 21 22 21 20 19 18 19 20 21 19 19 20 20 19 20 20 20 18 18 18 17 16 17 17 17 17 16 16 17 16 16 15 15 14 14 14 14 13 12
4 4 4 6 7 7 6 4 4 7 8 8 10 11 12 14 16 11 6 6 7 6 8 5 1 4 5 7 6 6 9 10 11 14 15 16 19 21 21 20 19 19 19 17 17 16 15 17 19 19 18 18 17 17 19 20 19 19 20 19 19 19 20 20 20 19 19 18 17 17 18 18 17 17 17 16 16 16 16 16 15 14 14 14 13 13
4 4 6 7 7 6 3 5 8 7 9 11 12 14 13 14 15 11 7 7 7 6 8 4 3 5 5 6 8 8 9 10 11 13 15 16 18 19 20 20 19 20 22 22 21 19 16 16 17 16 16 17 16 16 17 17 18 18 19 19 18 18 19 20 21 21 21 19 17 18 19 18 17 17 17 16 16 15 15 16 16 15 14 14 14 14
5 5 7 8 9 10 9 7 9 10 11 12 14 15 13 11 10 10 9 7 5 7 7 2 1 4 6 7 9 8 8 10 11 13 15 17 17 18 19 20 19 17 18 21 23 22 20 19 18 16 15 15 14 14 15 16 16 16 17 17 17 18 19 20 21 22 22 20 19 19 19 18 17 17 16 16 16 16 15 15 16 16 15 15 14 15
5 6 7 8 10 12 11 8 8 10 11 11 12 13 12 12 12 12 12 9 6 8 5 4 5 4 2 5 9 8 7 9 12 12 14 16 16 17 17 19 19 19 18 18 20 21 22 22 21 19 16 13 12 13 13 14 15 16 16 16 17 17 18 19 20 21 21 20 20 20 19 18 18 19 19 18 18 18 16 15 15 16 16 16 16 15
4 5 6 9 9 10 10 9 8 9 10 9 7 6 8 11 13 12 12 12 12 11 6 3 4 1 5 2 4 9 9 11 12 11 12 14 14 15 16 17 19 19 19 18 17 19 22 22 20 17 15 14 13 12 12 12 14 15 15 15 16 17 17 19 19 20 21 21 21 20 19 19 19 19 20 20 19 19 18 17 16 16 16 17 17 17
3 4 5 8 9 8 9 9 9 10 9 5 1 3 6 9 9 8 8 9 10 8 5 5 5 4 6 1 3 8 11 12 13 11 11 13 14 14 14 15 16 16 16 16 16 18 22 23 20 17 17 18 18 15 14 14 14 15 15 15 16 16 17 18 18 19 19 20 21 22 21 20 21 20 20 20 19 19 19 19 18 18 18 18 17 17
3 4 5 7 8 6 7 10 12 10 7 5 2 4 5 5 5 5 5 4 5 5 6 7 5 4 8 5 3 6 9 11 13 12 11 11 12 13 13 12 13 13 12 13 13 14 17 18 18 16 15 17 18 16 16 17 16 15 14 15 16 16 17 18 18 18 18 18 21 23 21 21 21 20 19 19 20 20 20 20 20 19 19 19 17 17
3 4 5 7 6 5 6 9 11 10 8 6 3 5 5 3 3 4 4 5 5 4 5 4 0 3 6 8 6 5 6 9 11 12 11 10 10 11 11 10 10 11 11 11 11 11 11 11 13 13 13 15 16 16 17 19 19 18 17 16 16 16 18 18 17 18 19 20 22 22 21 21 20 19 18 18 18 18 19 20 20 20 20 20 19 19
3 5 6 6 5 5 5 5 7 9 8 2 4 7 6 3 4 4 5 7 6 3 3 4 3 3 4 6 6 5 5 7 10 10 10 10 10 10 10 11 11 10 10 10 11 10 10 11 12 13 13 15 16 17 18 20 22 21 21 20 18 17 17 18 18 19 20 20 21 21 21 21 20 18 19 21 20 19 19 20 21 21 21 22 22 22
4 5 6 5 5 6 5 5 7 6 4 3 7 9 8 6 5 6 8 7 7 5 4 3 1 3 3 5 7 7 7 9 10 10 10 11 11 11 11 12 12 11 10 9 9 9 9 9 11 12 14 16 18 19 20 20 21 22 20 19 18 17 17 17 17 19 19 19 19 18 17 18 18 19 21 23 23 21 21 22 22 21 21 22 23 23
5 4 5 5 5 5 5 6 5 1 3 3 6 10 10 9 7 5 7 7 9 7 4 2 3 6 8 11 12 10 11 12 11 9 9 10 11 10 11 12 12 11 10 8 9 9 9 9 11 13 15 17 19 20 20 20 20 21 20 19 20 20 19 17 16 17 17 16 15 14 15 16 16 18 20 21 19 18 18 18 19 19 21 21 22 22
4 4 4 5 5 5 6 7 3 1 2 3 6 9 10 9 7 3 3 7 10 9 6 5 2 3 7 10 11 13 13 12 10 9 8 9 10 11 12 13 12 12 10 9 9 9 8 9 10 12 13 15 16 15 16 18 20 20 19 19 21 21 20 17 17 17 17 14 13 14 16 16 16 17 19 18 16 15 15 15 15 16 17 18 18 18
3 3 3 4 5 5 6 7 5 5 4 2 7 9 10 9 7 5 2 6 11 13 11 9 8 5 5 10 11 12 12 8 7 7 8 11 14 14 14 13 12 11 12 12 13 13 12 11 12 12 12 12 12 11 13 16 18 18 18 19 20 20 19 18 16 16 14 12 10 10 12 13 14 15 16 14 13 13 13 14 14 13 14 15 15 16
4 4 3 4 6 6 7 8 6 5 1 5 8 9 11 11 8 4 3 2 11 17 15 12 11 10 2 9 10 9 7 5 5 8 10 13 14 13 13 13 13 14 16 16 16 16 16 17 18 17 17 17 16 15 14 14 16 18 19 20 19 18 18 17 16 16 13 10 9 8 8 9 9 9 9 9 10 11 11 12 12 11 11 12 14 14
4 5 5 6 7 6 7 7 3 1 3 8 11 10 11 12 10 6 6 1 11 18 15 11 11 12 5 5 7 4 2 2 5 10 12 14 14 13 13 15 17 19 18 17 18 18 18 20 19 18 19 20 19 17 15 15 16 17 19 21 20 20 19 18 17 17 15 14 12 10 8 9 10 9 8 8 9 9 8 7 7 6 5 5 6 7
3 4 5 6 6 5 6 5 1 3 4 10 13 12 14 12 8 4 2 4 12 16 14 10 9 9 5 2 3 2 3 4 9 13 14 15 16 15 16 17 19 20 19 18 20 19 18 18 17 16 19 19 17 15 14 15 16 16 17 18 18 19 18 18 18 18 17 16 14 10 8 10 11 10 9 8 7 6 7 6 5 6 6 4 3 4
2 2 4 5 4 4 5 3 2 4 6 14 13 11 15 10 4 1 6 8 11 14 13 11 10 9 5 6 8 8 7 10 15 16 15 17 18 17 17 18 19 20 21 20 19 17 16 15 16 18 19 16 12 11 12 13 16 16 16 16 16 15 14 14 15 16 16 16 14 10 7 9 10 8 8 7 6 6 6 6 6 7 8 6 5 6
4 3 3 1 2 4 5 3 3 4 7 16 11 7 12 8 2 4 9 8 9 11 10 8 9 10 7 9 11 14 17 17 16 16 16 18 18 17 18 19 18 20 22 19 16 16 16 17 17 17 16 11 8 9 9 10 13 15 14 15 15 13 12 12 12 13 13 13 12 9 7 8 7 6 6 6 6 6 6 7 5 5 6 6 5 5
4 4 2 3 4 4 2 2 2 2 8 14 11 7 9 9 5 6 8 7 9 10 9 8 9 10 9 9 11 15 17 14 12 14 17 18 18 19 19 18 17 18 18 16 15 15 15 15 13 12 10 8 7 8 8 8 9 10 11 12 12 12 12 11 11 11 10 8 7 7 6 6 6 6 5 5 5 4 5 6 5 5 5 5 4 3
5 5 4 4 5 4 3 5 5 5 8 12 13 11 10 10 9 8 8 9 10 10 10 9 9 9 8 11 11 10 11 11 12 15 17 17 19 19 18 17 17 17 16 15 15 13 12 11 11 10 9 8 6 7 8 7 7 8 9 10 11 11 11 10 10 10 9 8 7 6 5 5 6 6 5 4 3 2 2 3 3 3 4 4 4 3
5 2 2 1 5 8 8 7 7 7 8 10 11 12 12 12 12 11 11 11 11 11 11 9 10 9 8 10 9 7 11 14 15 15 16 17 17 17 17 17 17 16 15 14 13 11 10 10 10 9 9 8 6 7 8 7 7 7 7 7 8 9 10 10 10 10 10 9 8 7 5 4 4 4 4 4 4 3 2 2 2 3 3 2 2 2
4 1 2 1 4 5 4 6 8 7 8 9 9 10 12 13 14 13 13 12 12 12 12 11 10 9 8 6 6 9 12 14 14 14 15 16 16 17 18 18 18 16 15 13 11 10 9 9 9 9 9 9 9 8 7 6 6 6 5 4 4 5 7 8 8 8 8 7 7 8 7 5 5 4 4 4 4 3 3 2 1 2 1 2 2 1
4 2 3 2 3 3 3 6 8 8 9 9 8 9 11 12 13 14 13 13 13 13 13 13 11 10 9 7 6 11 13 13 14 14 13 14 16 16 18 20 20 18 15 13 11 10 9 8 9 9 8 8 8 7 5 4 4 5 6 5 4 4 5 6 6 6 6 5 5 5 6 8 8 6 4 4 4 5 6 5 3 2 3 5 7 5
2 1 1 2 3 4 6 7 7 7 8 9 9 10 10 10 11 13 13 14 14 13 13 13 12 11 9 8 7 9 11 12 14 13 13 14 15 15 17 19 19 17 14 11 9 9 7 7 7 6 5 6 6 4 4 3 4 5 5 5 5 4 3 4 4 5 5 5 4 5 5 6 6 4 3 4 4 8 10 10 9 7 6 9 10 9
1 2 2 0 1 2 3 3 3 3 4 6 8 8 8 9 10 11 12 14 15 14 13 12 11 10 8 7 6 5 7 10 11 11 12 14 16 18 19 19 19 18 16 12 9 7 5 4 3 2 2 3 3 3 4 5 5 5 5 5 6 4 4 3 3 4 4 3 3 4 5 4 4 5 5 5 4 6 8 11 13 11 7 6 8 9
2 2 2 2 2 4 2 2 2 3 5 6 7 7 7 8 8 10 11 12 13 13 12 11 10 9 8 6 5 3 4 5 7 9 10 12 17 20 20 19 19 19 17 14 11 7 5 5 3 2 2 1 2 4 5 6 7 7 7 7 6 6 6 5 4 4 3 2 2 5 5 3 2 6 7 5 4 3 3 7 12 13 11 9 8 8
Wind_Direction
198 204 213 216 222 212 210 230 225 227 233 124 165 233 138 150 163 143 148 156 169 168 175 185 154 166 203 186 177 172 170 172 168 163 163 164 164 167 167 162 164 166 162 162 164 162 161 162 160 158 158 157 155 154 154 153 152 151 153 154 151 153 157 155 153 151 150 153 152 152 157 156 152 153 150 147 146 144 154 156 149 147 147 147 149 147
200 216 219 216 223 223 221 220 200 235 260 161 167 184 141 157 135 133 149 149 172 177 159 173 163 177 219 213 187 174 172 174 169 164 164 165 166 168 167 164 165 165 162 163 163 162 162 163 162 160 160 159 158 159 158 157 156 154 156 156 155 158 158 156 158 156 154 156 154 154 157 158 159 157 153 151 151 155 165 161 151 149 148 147 149 147
203 225 224 216 222 234 237 226 208 229 254 242 151 135 139 144 108 115 144 154 174 174 152 177 178 175 217 243 205 176 172 173 169 168 166 165 167 168 168 166 166 165 164 165 165 164 163 164 164 162 162 162 162 162 162 161 159 157 161 162 161 160 157 161 166 159 153 156 155 152 155 157 157 156 154 154 157 164 168 162 156 151 150 150 149 149
200 221 225 219 217 230 247 244 240 234 245 250 104 115 159 161 162 131 152 166 170 163 160 167 178 150 127 251 221 176 170 171 170 171 167 168 169 168 170 169 169 168 165 167 168 166 165 165 167 165 165 164 164 164 164 165 162 162 167 167 164 160 158 165 165 157 157 164 160 154 152 150 152 155 156 157 157 158 160 164 165 158 155 154 152 153
219 215 218 220 208 222 240 234 237 236 242 194 127 145 172 168 198 159 159 164 156 157 154 143 150 133 165 234 217 173 173 173 170 172 170 171 171 168 171 172 171 171 168 169 170 168 166 167 169 168 167 167 167 167 167 168 166 167 171 167 164 162 161 164 163 162 166 166 161 160 159 156 157 160 158 159 160 159 162 167 170 167 164 160 161 161
229 207 205 215 201 224 242 232 225 225 248 216 166 170 140 148 159 147 158 161 163 172 162 162 172 166 198 218 196 167 182 176 170 175 174 173 173 172 174 174 174 173 171 172 171 170 169 169 172 170 170 170 169 170 168 169 169 169 171 167 164 162 161 164 166 166 166 162 162 164 162 160 161 160 160 163 165 164 163 165 171 173 168 165 166 166
222 176 196 216 204 224 238 237 224 216 243 236 194 173 128 139 151 151 161 167 183 168 163 189 197 141 188 221 200 172 187 188 177 178 178 175 174 175 176 176 176 175 174 174 173 173 171 171 174 172 172 173 170 171 169 168 168 168 171 169 166 164 163 169 170 166 164 164 165 161 158 162 161 159 161 162 163 163 160 165 173 172 169 168 166 169
208 164 191 214 215 226 229 231 208 205 243 248 168 183 140 146 152 154 164 160 136 111 144 208 230 110 187 217 200 180 190 204 190 182 179 178 177 177 179 178 179 179 176 175 175 176 175 173 175 174 174 175 172 171 169 168 168 168 172 171 169 168 168 172 173 170 168 167 164 158 160 165 161 163 164 158 158 160 158 164 169 170 174 173 167 176
201 172 187 208 221 226 224 227 194 194 237 153 84 225 141 132 129 155 174 135 141 146 152 195 186 148 210 194 184 182 196 204 195 189 181 180 181 178 181 181 180 180 177 178 177 176 177 175 175 176 176 176 174 171 169 169 168 169 173 172 171 172 173 174 175 173 170 170 166 158 163 165 157 164 164 157 160 163 163 168 170 172 178 178 173 179
190 207 207 213 222 219 226 232 200 206 244 56 50 241 144 129 126 165 190 111 149 227 174 179 177 186 223 183 178 184 200 201 195 197 185 182 183 181 184 183 180 180 178 180 179 176 177 176 176 176 175 176 173 171 170 169 168 169 172 174 173 174 175 177 178 175 172 174 169 160 166 168 157 158 159 160 170 172 172 175 176 177 176 179 180 183
156 209 216 237 231 220 232 231 199 218 261 5 229 230 181 155 140 141 148 110 158 255 201 177 176 188 215 194 193 187 191 190 192 197 187 185 185 182 186 184 179 178 178 179 178 176 178 177 176 175 175 174 171 170 170 170 170 170 172 176 176 174 175 179 180 179 175 173 171 167 171 172 163 161 161 168 176 174 175 174 175 179 175 176 181 186
174 207 217 245 242 238 242 229 188 214 251 256 214 205 222 186 144 119 118 165 206 229 226 179 176 192 210 211 205 187 182 182 184 192 187 186 187 184 185 183 178 178 179 179 176 176 178 177 177 177 174 172 170 169 171 171 170 171 173 177 180 177 177 180 181 181 178 173 172 172 174 174 170 167 164 169 173 171 171 171 173 178 179 180 180 183
197 212 210 220 231 240 256 236 185 204 228 234 205 196 230 206 171 187 183 199 220 169 161 168 175 201 222 234 207 188 188 182 175 185 190 189 187 185 184 180 176 177 180 179 176 176 177 177 180 178 174 172 171 171 171 172 171 172 174 177 181 182 180 182 181 182 181 177 176 176 178 178 175 172 169 168 171 171 168 170 177 181 182 184 180 181
201 199 202 209 213 215 230 236 202 193 203 216 207 200 229 228 215 228 204 199 203 146 146 168 183 202 186 226 207 188 191 190 177 175 188 193 187 183 183 179 175 177 181 180 177 177 177 177 180 179 175 173 173 173 173 173 171 172 175 177 181 184 184 185 183 183 185 182 181 181 182 185 181 178 173 168 170 176 173 174 180 180 182 186 182 180
214 208 199 202 199 191 207 233 245 237 207 208 213 209 228 240 242 256 242 221 189 148 137 171 196 232 140 201 218 185 183 191 178 147 161 188 186 184 184 182 178 178 181 181 178 180 180 178 179 179 177 175 175 175 176 175 172 172 176 179 182 185 187 188 186 185 185 184 186 186 185 185 183 180 177 175 177 180 180 178 179 177 179 185 181 179
221 230 185 186 197 187 198 222 246 266 236 198 207 214 225 237 248 270 278 64 121 151 117 192 207 40 128 172 180 168 168 179 177 155 163 182 187 190 188 184 182 180 182 183 181 182 180 178 180 180 178 178 179 178 178 178 176 175 178 181 183 186 188 189 189 187 186 185 187 190 187 183 184 183 184 188 185 180 181 178 180 179 176 180 183 184
218 237 145 168 201 197 197 211 220 247 260 191 208 215 222 239 252 274 267 134 165 184 173 205 177 123 148 158 144 154 158 162 180 191 196 196 196 198 191 185 185 183 181 183 182 183 181 178 180 181 181 182 181 181 182 181 179 178 179 181 183 185 186 190 191 188 187 187 187 192 190 186 189 188 188 196 188 178 185 184 182 182 176 180 184 184
235 240 142 164 207 196 197 213 212 227 244 220 213 206 213 234 246 266 257 211 219 222 191 210 182 154 184 174 146 160 165 169 183 191 193 199 206 203 191 187 189 185 182 182 183 184 182 180 181 182 184 185 184 184 183 182 181 181 182 182 183 184 185 188 190 188 189 189 187 192 194 190 193 193 192 200 191 180 190 189 182 183 182 184 180 177
252 248 151 169 208 185 186 214 213 218 229 239 257 241 220 229 223 221 237 243 240 222 180 238 212 180 187 169 159 171 175 174 179 182 185 193 200 198 190 190 191 186 183 183 183 183 183 183 183 184 186 186 186 186 183 183 184 184 184 184 186 187 186 187 187 188 190 190 188 191 195 193 194 196 195 198 193 186 191 192 190 189 185 183 180 180
250 258 160 167 201 184 181 212 214 203 215 235 256 257 231 230 233 235 239 255 262 240 176 230 218 153 89 172 173 177 182 178 176 179 185 192 194 193 192 191 191 188 184 182 184 184 183 184 185 186 187 186 186 187 186 186 186 186 186 186 187 187 187 187 187 189 191 190 190 191 195 196 195 195 195 195 194 192 191 193 194 196 190 186 187 189
245 254 231 168 191 194 187 202 218 208 198 214 230 232 224 216 227 248 246 246 264 262 226 233 224 102 79 188 178 172 181 184 183 185 186 192 193 191 193 193 190 189 185 183 185 186 185 186 186 187 187 186 187 188 189 189 188 188 187 187 188 186 187 188 187 190 192 190 192 193 193 197 197 195 194 195 197 195 193 193 191 193 195 193 194 194
238 256 250 188 181 203 200 192 216 231 217 205 213 224 228 222 221 232 236 239 260 264 237 233 235 110 87 54 148 156 176 182 184 188 188 193 193 189 190 195 190 187 188 186 188 188 186 187 187 187 186 186 188 190 191 190 189 187 187 187 188 187 187 189 189 190 192 191 193 196 194 195 198 197 195 197 200 197 195 196 192 191 194 195 196 195
313 287 269 250 215 206 203 192 206 230 237 224 217 222 227 227 223 228 237 240 255 267 256 232 205 114 119 144 128 143 172 180 178 183 186 189 189 185 184 191 191 187 191 197 194 189 186 187 188 187 186 187 189 190 192 191 187 185 187 188 189 189 189 190 190 191 194 193 194 196 195 195 198 200 198 199 203 201 199 199 195 194 194 195 198 196
336 267 256 272 267 191 192 193 194 215 236 237 223 223 226 225 220 221 238 263 261 262 264 240 204 123 127 154 138 146 161 171 175 177 175 173 178 181 180 181 183 181 188 199 200 191 185 186 188 187 185 186 187 188 188 189 186 184 186 188 190 191 192 192 191 192 195 196 196 196 196 196 197 200 202 203 205 204 204 203 200 200 198 198 199 197
244 250 236 248 239 182 177 179 180 203 232 244 235 227 226 232 232 221 216 252 267 267 274 264 208 131 131 145 158 156 152 157 167 170 167 163 170 179 177 172 171 167 170 182 189 189 188 188 189 187 183 181 183 184 184 185 187 186 186 189 192 191 193 194 191 192 196 197 196 197 197 198 199 200 202 205 206 206 207 206 205 205 202 202 202 199
262 265 251 241 234 203 184 196 220 213 210 225 240 238 230 231 237 235 214 216 240 263 275 276 129 130 143 150 171 174 154 153 158 160 162 164 171 177 173 166 164 164 162 155 152 161 172 177 179 179 177 179 182 181 179 180 183 186 187 190 193 192 193 195 194 194 197 197 196 198 197 197 200 202 202 204 206 207 208 208 209 210 207 205 205 202
267 252 252 258 261 256 273 303 284 245 204 208 227 234 235 232 233 239 234 218 224 242 250 247 126 146 157 156 174 178 163 156 156 158 161 165 170 173 170 165 163 166 168 163 157 157 157 155 158 165 170 175 180 179 178 179 181 187 191 191 193 194 194 197 197 198 202 201 197 200 201 199 200 203 204 206 207 207 208 209 210 212 212 209 210 208
269 243 237 245 247 252 269 289 278 249 217 207 213 220 231 241 240 245 244 225 213 233 243 300 352 199 187 181 182 177 170 161 158 161 161 165 171 171 172 173 172 173 172 170 173 175 170 161 159 163 165 168 173 172 175 180 182 190 195 192 194 198 197 199 202 204 208 207 202 204 204 200 199 202 204 206 207 208 209 211 211 213 214 214 215 215
273 243 230 240 232 232 250 265 255 241 232 222 215 213 221 229 227 235 243 232 215 228 247 351 325 274 206 182 169 162 178 170 158 158 157 160 168 169 171 174 179 186 183 178 180 183 181 176 173 173 171 168 170 171 173 179 183 190 195 194 199 203 201 202 204 206 208 208 208 211 209 203 201 202 204 204 205 206 208 209 211 213 215 215 216 217
281 257 252 273 256 219 228 244 230 228 238 236 227 232 248 243 228 226 235 229 224 228 219 208 249 16 38 350 170 154 169 167 156 155 153 155 163 167 172 175 179 189 192 189 190 191 192 194 193 196 200 199 195 189 184 185 187 192 194 193 199 205 204 205 205 206 207 206 207 212 212 209 210 210 210 210 210 211 210 209 211 214 216 218 217 217
258 246 245 281 273 222 209 223 221 223 228 219 246 312 284 264 250 246 250 244 238 238 217 207 214 113 87 303 222 147 152 155 153 158 158 159 163 165 171 176 177 183 191 194 199 202 204 209 217 224 225 222 222 216 204 199 198 196 194 192 195 200 202 203 203 205 206 204 204 209 211 213 217 217 217 218 219 219 217 214 213 214 215 218 219 219
254 250 238 255 259 229 209 216 213 210 206 184 100 355 306 264 262 272 280 284 276 262 243 235 236 113 119 147 146 135 147 151 152 160 165 167 169 169 173 177 176 176 182 188 193 199 207 216 223 224 219 218 223 222 213 208 203 195 191 193 198 202 202 201 201 201 201 202 204 207 209 213 217 218 218 219 221 222 223 222 220 219 219 219 219 222
252 261 251 245 247 226 217 225 213 198 196 188 129 19 354 339 323 320 338 359 356 317 268 256 305 85 125 136 134 157 168 155 151 157 162 166 171 174 170 166 166 167 167 170 173 177 185 195 203 208 209 210 215 217 215 210 204 196 191 192 197 200 200 199 198 198 201 205 207 207 207 209 212 214 216 219 222 224 225 224 224 223 224 223 219 221
251 257 255 254 260 235 226 261 247 211 198 165 62 31 20 33 7 7 39 25 6 4 345 359 56 101 134 129 137 178 172 144 144 149 152 158 160 154 142 133 135 140 140 142 145 148 157 170 181 190 197 202 206 212 213 209 204 200 199 200 201 201 200 199 197 197 202 208 211 212 214 216 217 220 226 230 234 235 234 231 228 227 228 228 226 226
268 252 247 243 246 243 245 277 265 227 175 76 46 33 21 18 21 59 79 43 9 27 28 2 94 136 155 154 161 173 151 129 130 133 136 140 138 132 127 123 125 125 124 133 146 153 165 185 195 194 195 198 201 205 207 205 204 203 203 204 207 209 210 208 203 201 203 209 214 216 222 227 229 234 239 241 242 244 243 240 236 234 232 233 234 233
292 272 255 240 230 237 243 244 249 200 112 102 55 32 17 15 26 71 98 55 21 17 6 319 179 170 176 172 161 148 132 122 114 105 112 125 128 132 137 135 132 126 125 141 159 164 173 188 192 188 188 190 191 193 194 193 196 201 201 199 203 210 214 212 210 210 210 211 212 215 222 228 230 234 237 238 237 237 238 235 233 233 234 235 237 235
286 276 257 241 225 229 236 230 226 218 183 134 54 25 12 13 8 1 87 64 38 19 3 351 312 185 152 142 133 126 124 123 112 96 92 104 111 120 128 127 124 121 122 130 134 140 158 174 178 180 185 189 190 189 188 188 194 202 202 199 203 208 207 200 200 207 212 210 208 214 222 224 224 228 230 230 226 222 222 222 221 224 229 231 234 234
261 258 258 247 227 227 235 227 219 226 218 73 33 9 5 3 348 338 64 66 33 17 14 8 342 334 113 123 128 131 132 131 121 105 87 89 97 105 112 114 112 114 117 117 113 115 124 129 133 142 153 161 163 162 170 180 187 192 190 188 192 195 191 183 179 185 193 195 195 201 209 211 213 220 224 224 220 216 215 215 213 215 222 226 230 229
238 231 236 245 234 229 233 232 230 225 184 35 11 354 355 352 336 310 206 107 21 8 8 12 353 338 51 128 134 143 149 146 130 115 100 96 99 104 111 112 111 113 113 110 108 106 108 110 110 112 116 119 120 122 131 147 158 163 162 162 165 167 167 164 160 159 157 152 148 153 164 174 183 196 201 195 195 201 204 206 204 205 214 220 223 225
226 222 217 231 235 234 233 233 233 138 60 14 352 342 347 345 329 281 222 153 9 357 357 11 358 341 352 121 139 154 153 93 125 129 119 111 108 109 117 120 118 117 115 112 112 109 109 110 107 105 108 108 106 108 115 127 137 141 140 142 146 147 146 145 144 141 133 127 126 128 137 151 157 160 158 157 166 175 174 179 187 183 184 203 213 217
229 230 230 233 237 240 235 230 157 105 38 354 341 338 338 326 302 267 249 346 347 342 350 7 358 343 346 89 115 75 36 67 119 130 123 116 114 114 118 118 115 115 116 116 114 110 108 106 104 109 113 109 105 108 113 118 123 122 123 128 134 136 136 137 136 133 129 125 122 121 134 147 146 144 144 141 138 136 131 125 118 110 104 101 119 140
273 254 238 237 249 246 229 214 151 121 20 347 333 346 350 327 260 322 347 334 334 343 357 7 357 352 18 66 66 61 73 97 114 120 118 116 115 114 114 112 108 111 115 115 112 112 113 111 110 115 112 103 103 116 124 128 128 123 121 123 125 126 129 133 134 132 132 129 120 116 131 136 130 132 143 137 120 112 113 107 102 113 128 133 121 120
348 313 249 224 330 262 223 190 168 147 27 358 342 3 16 11 33 1 339 331 347 359 5 6 358 3 39 82 88 92 100 105 110 116 117 115 115 116 115 114 118 122 122 118 114 116 120 116 112 111 108 103 112 127 139 145 139 135 135 133 131 132 136 141 141 133 131 133 130 126 129 130 128 133 138 132 122 114 113 112 113 126 137 131 110 108
5 336 327 50 23 310 259 87 78 89 40 27 29 52 44 33 28 358 341 350 8 9 6 6 9 23 58 96 104 104 108 112 118 125 125 121 122 124 122 122 126 128 125 121 119 120 119 115 110 109 110 115 127 135 145 149 143 148 153 150 149 149 147 151 152 139 135 146 150 141 136 143 157 166 165 158 145 129 129 133 134 136 130 119 114 122
30 11 358 27 50 53 64 84 83 65 53 53 56 60 55 44 34 21 16 19 18 14 12 16 21 37 82 118 124 128 140 145 139 135 133 128 127 127 128 131 133 131 127 127 128 128 125 121 119 119 118 122 131 136 140 144 152 164 165 164 166 164 158 159 160 154 157 165 164 156 153 159 169 179 190 187 150 123 142 137 126 141 139 124 130 155
63 42 332 12 108 105 95 99 101 83 69 70 67 60 54 46 38 34 35 34 27 21 24 31 35 45 84 118 127 140 149 145 141 137 134 131 131 131 130 132 133 132 131 129 129 130 129 125 123 121 119 116 115 117 120 131 156 171 172 170 171 170 168 169 168 169 173 174 169 161 154 162 176 176 179 173 154 155 171 150 149 182 167 142 169 192
114 223 262 160 145 146 117 97 96 86 73 71 69 64 56 47 43 41 40 38 34 31 34 37 43 55 71 88 112 132 136 137 140 138 134 134 133 130 130 131 129 129 128 123 123 130 131 127 121 118 118 115 111 113 117 123 142 144 125 120 155 179 178 172 171 173 171 170 165 154 150 166 177 168 159 157 152 159 157 145 173 191 152 145 180 198
117 234 246 141 124 135 124 107 101 92 78 65 58 57 53 48 47 46 44 43 40 39 41 41 46 58 55 53 104 134 138 139 142 141 138 138 135 131 135 140 139 135 129 119 118 124 124 120 120 122 126 124 120 122 122 120 132 131 120 128 170 196 185 175 176 171 156 149 152 157 169 174 166 155 153 151 157 172 164 148 140 149 187 195 185 167
93 237 239 147 126 115 121 127 126 118 96 74 64 60 54 51 51 49 47 48 44 41 44 45 49 58 59 59 93 128 138 143 151 152 145 143 145 145 146 149 150 148 140 131 131 133 125 120 123 129 136 136 136 145 152 156 155 143 147 179 205 215 203 188 176 156 143 144 156 165 170 164 152 148 149 150 183 204 192 174 160 156 186 209 202 188
224 290 353 351 151 110 107 109 120 141 116 79 69 65 56 51 53 52 49 49 47 43 42 44 46 52 59 63 75 115 139 148 162 169 160 157 165 168 165 163 165 163 155 148 149 154 156 152 151 171 180 160 171 213 229 226 204 171 177 209 215 211 208 187 148 132 128 128 151 156 141 131 153 168 156 152 192 216 210 201 192 186 200 225 218 208
59 41 6 360 88 116 135 98 96 140 128 93 76 69 57 46 49 53 50 47 47 45 43 44 44 43 46 51 53 76 134 155 169 176 174 172 175 178 178 177 176 173 168 162 159 170 202 219 234 280 297 294 273 262 257 250 230 211 215 223 214 206 204 181 144 130 127 123 177 169 137 112 170 173 159 159 186 193 206 218 214 216 234 253 260 250
Height
1500 1503 1502 1500 1494 1490 1490 1487 1487 1491 1492 1503 1515 1515 1515 1519 1519 1518 1517 1516 1518 1527 1533 1531 1533 1535 1534 1529 1524 1523 1524 1524 1526 1528 1531 1535 1537 1540 1542 1544 1547 1550 1553 1555 1558 1560 1562 1564 1566 1568 1570 1571 1573 1575 1576 1578 1579 1580 1581 1582 1583 1585 1586 1587 1588 1590 1591 1593 1594 1595 1596 1597 1598 1599 1599 1601 1602 1602 1602 1602 1603 1604 1605 1605 1606 1606
1500 1502 1497 1490 1487 1485 1484 1482 1485 1491 1490 1498 1513 1516 1514 1517 1519 1517 1517 1517 1517 1524 1533 1531 1533 1536 1535 1533 1527 1524 1524 1524 1525 1528 1531 1534 1537 1540 1542 1544 1547 1550 1552 1555 1557 1559 1561 1564 1566 1567 1569 1571 1573 1574 1576 1577 1579 1580 1581 1582 1584 1585 1586 1587 1589 1590 1592 1593 1594 1596 1597 1598 1598 1599 1600 1601 1602 1603 1602 1602 1603 1604 1605 1606 1606 1607
1502 1500 1491 1483 1482 1483 1482 1479 1483 1492 1490 1492 1507 1517 1519 1519 1518 1517 1517 1517 1518 1524 1532 1532 1533 1536 1535 1534 1529 1524 1523 1524 1526 1528 1530 1534 1536 1539 1542 1544 1546 1549 1552 1554 1556 1559 1561 1563 1565 1567 1569 1571 1572 1574 1576 1577 1578 1580 1581 1582 1583 1585 1586 1588 1589 1590 1592 1593 1594 1596 1597 1598 1598 1599 1600 1602 1602 1602 1602 1603 1604 1605 1605 1606 1607 1608
1502 1496 1485 1480 1482 1485 1487 1485 1486 1493 1490 1492 1508 1519 1522 1519 1517 1521 1521 1519 1518 1522 1529 1531 1533 1536 1536 1535 1529 1524 1524 1525 1527 1529 1531 1534 1536 1538 1541 1543 1546 1547 1550 1553 1555 1557 1560 1562 1564 1566 1568 1570 1572 1574 1575 1577 1578 1580 1580 1581 1583 1585 1586 1587 1589 1590 1592 1593 1593 1595 1597 1597 1598 1600 1600 1601 1602 1602 1603 1604 1604 1605 1606 1607 1608 1608
1494 1486 1480 1480 1483 1487 1492 1491 1489 1494 1492 1492 1506 1511 1513 1515 1513 1517 1519 1520 1522 1523 1525 1530 1539 1540 1536 1538 1533 1525 1525 1525 1527 1529 1531 1534 1535 1538 1541 1543 1545 1547 1549 1551 1554 1556 1559 1561 1563 1565 1567 1569 1571 1573 1575 1576 1578 1579 1580 1581 1582 1584 1586 1587 1588 1590 1591 1592 1593 1594 1596 1597 1598 1599 1600 1601 1603 1603 1604 1605 1605 1606 1607 1607 1608 1609
1487 1478 1479 1482 1485 1490 1494 1491 1487 1492 1494 1494 1498 1497 1501 1510 1511 1513 1517 1521 1528 1531 1525 1526 1544 1548 1537 1537 1535 1530 1529 1526 1526 1529 1530 1532 1535 1537 1540 1542 1544 1547 1549 1551 1553 1555 1558 1560 1563 1565 1567 1569 1571 1572 1574 1576 1578 1579 1580 1581 1582 1584 1585 1587 1588 1589 1591 1592 1594 1595 1596 1597 1598 1599 1601 1602 1603 1604 1604 1606 1606 1606 1607 1608 1608 1609
1481 1477 1480 1484 1489 1493 1494 1490 1483 1486 1493 1495 1489 1485 1496 1507 1511 1514 1515 1520 1528 1531 1524 1521 1537 1550 1543 1536 1532 1530 1532 1530 1527 1527 1528 1531 1534 1536 1538 1541 1543 1545 1548 1550 1553 1555 1557 1560 1562 1564 1566 1568 1570 1572 1574 1576 1578 1579 1579 1581 1582 1584 1585 1586 1588 1589 1591 1592 1594 1595 1596 1598 1599 1600 1601 1602 1603 1604 1605 1606 1606 1606 1607 1608 1609 1610
1478 1482 1486 1487 1491 1494 1494 1490 1481 1481 1491 1493 1483 1480 1493 1504 1510 1515 1517 1523 1527 1527 1529 1526 1530 1545 1548 1537 1529 1529 1534 1535 1530 1526 1528 1530 1532 1535 1537 1539 1542 1544 1547 1549 1552 1554 1556 1559 1561 1563 1565 1567 1569 1571 1573 1575 1577 1578 1579 1580 1582 1584 1585 1586 1588 1589 1590 1592 1594 1595 1597 1598 1599 1600 1601 1602 1603 1604 1605 1606 1607 1607 1608 1608 1609 1610
1476 1485 1489 1489 1494 1494 1490 1484 1476 1479 1488 1487 1480 1480 1490 1502 1513 1516 1518 1523 1522 1525 1536 1535 1530 1544 1549 1535 1528 1531 1534 1536 1533 1526 1526 1529 1531 1533 1535 1537 1540 1542 1546 1548 1550 1553 1555 1558 1560 1562 1565 1567 1569 1570 1573 1575 1576 1578 1579 1580 1582 1584 1585 1586 1587 1589 1590 1592 1594 1595 1597 1598 1600 1601 1601 1602 1603 1604 1605 1606 1606 1607 1608 1608 1609 1610
1477 1482 1485 1487 1492 1491 1485 1477 1472 1480 1485 1480 1480 1483 1488 1503 1516 1517 1517 1521 1524 1528 1533 1529 1528 1543 1550 1537 1532 1538 1536 1534 1532 1526 1525 1527 1530 1532 1533 1535 1538 1541 1545 1547 1549 1552 1554 1557 1559 1562 1564 1566 1568 1570 1572 1574 1575 1577 1578 1580 1582 1583 1585 1586 1587 1589 1590 1592 1594 1595 1597 1598 1599 1600 1601 1602 1603 1604 1604 1605 1606 1607 1607 1608 1609 1610
1478 1480 1483 1485 1486 1484 1480 1475 1473 1480 1483 1481 1485 1488 1490 1500 1510 1515 1516 1519 1533 1539 1528 1519 1521 1535 1549 1541 1530 1533 1531 1527 1527 1524 1523 1525 1528 1530 1532 1533 1536 1540 1543 1545 1548 1551 1554 1556 1558 1561 1563 1565 1568 1569 1571 1574 1575 1577 1578 1579 1581 1583 1585 1586 1587 1589 1590 1592 1594 1595 1596 1597 1599 1600 1601 1602 1602 1603 1604 1605 1606 1607 1607 1608 1609 1610
1483 1486 1487 1485 1483 1480 1478 1477 1476 1480 1483 1484 1488 1495 1500 1500 1507 1524 1530 1528 1538 1543 1527 1516 1518 1530 1546 1540 1523 1521 1518 1517 1522 1522 1521 1524 1526 1528 1530 1531 1534 1538 1542 1544 1547 1550 1552 1556 1557 1560 1563 1564 1567 1569 1571 1573 1574 1576 1578 1579 1580 1582 1584 1585 1587 1589 1590 1592 1593 1595 1596 1597 1598 1599 1600 1601 1602 1603 1604 1605 1606 1606 1607 1608 1609 1609
1486 1488 1486 1485 1484 1481 1483 1485 1485 1486 1486 1488 1491 1500 1509 1508 1514 1535 1540 1533 1535 1532 1520 1516 1523 1532 1537 1526 1515 1516 1514 1511 1516 1518 1519 1522 1525 1526 1527 1529 1533 1537 1540 1543 1545 1548 1551 1554 1557 1559 1561 1564 1566 1568 1570 1572 1574 1575 1577 1578 1580 1581 1583 1585 1587 1588 1590 1592 1593 1594 1596 1597 1598 1599 1600 1601 1602 1603 1604 1605 1605 1606 1607 1607 1608 1609
1489 1487 1483 1486 1485 1482 1487 1491 1491 1490 1489 1491 1492 1501 1513 1515 1524 1536 1530 1526 1528 1522 1514 1514 1525 1533 1530 1520 1512 1509 1510 1510 1513 1518 1520 1522 1523 1525 1525 1528 1532 1535 1538 1541 1544 1547 1549 1552 1556 1558 1560 1563 1565 1568 1570 1571 1573 1575 1576 1577 1579 1581 1583 1584 1586 1588 1590 1591 1593 1594 1595 1596 1597 1598 1600 1601 1602 1603 1603 1604 1605 1605 1606 1607 1607 1608
1493 1493 1483 1484 1484 1481 1486 1486 1483 1481 1483 1486 1485 1493 1505 1507 1517 1525 1520 1524 1524 1519 1520 1519 1524 1530 1528 1523 1512 1504 1506 1509 1512 1519 1522 1524 1523 1523 1525 1527 1530 1534 1537 1540 1542 1545 1548 1551 1554 1557 1559 1562 1564 1566 1569 1571 1573 1574 1575 1577 1578 1580 1582 1584 1585 1587 1589 1591 1592 1593 1595 1596 1597 1598 1599 1601 1602 1602 1603 1604 1605 1605 1606 1606 1607 1608
1488 1486 1469 1472 1477 1476 1484 1483 1477 1480 1483 1481 1479 1491 1500 1494 1498 1506 1506 1513 1515 1520 1530 1527 1523 1521 1515 1514 1507 1503 1508 1509 1512 1519 1521 1523 1523 1522 1524 1525 1528 1532 1535 1539 1541 1544 1547 1550 1553 1556 1558 1561 1563 1565 1568 1570 1572 1573 1575 1576 1577 1579 1581 1583 1584 1586 1588 1590 1591 1593 1594 1595 1597 1598 1599 1600 1600 1602 1603 1604 1604 1604 1605 1606 1606 1607
1485 1481 1464 1470 1476 1472 1479 1480 1477 1483 1486 1483 1484 1493 1491 1480 1486 1500 1506 1506 1508 1523 1529 1519 1519 1518 1511 1514 1510 1506 1511 1511 1513 1518 1518 1520 1522 1522 1523 1524 1527 1531 1533 1537 1540 1543 1546 1548 1551 1554 1557 1560 1562 1564 1566 1569 1571 1572 1574 1575 1577 1578 1580 1582 1583 1585 1587 1589 1591 1592 1593 1595 1596 1597 1598 1598 1599 1601 1602 1603 1603 1604 1605 1605 1606 1607
1481 1481 1469 1474 1480 1473 1475 1478 1476 1477 1481 1487 1490 1487 1481 1480 1486 1497 1510 1511 1510 1520 1519 1507 1515 1523 1519 1519 1514 1509 1513 1515 1514 1516 1517 1518 1520 1521 1521 1523 1526 1529 1533 1536 1539 1542 1545 1547 1550 1553 1556 1558 1560 1563 1565 1567 1570 1571 1573 1575 1576 1578 1579 1581 1582 1584 1586 1587 1589 1591 1592 1594 1595 1596 1598 1598 1599 1600 1601 1602 1602 1603 1604 1605 1606 1606
1479 1484 1475 1473 1478 1475 1473 1480 1483 1479 1475 1480 1483 1476 1481 1497 1500 1497 1505 1512 1513 1521 1521 1508 1509 1518 1519 1514 1512 1512 1513 1513 1512 1513 1515 1517 1518 1519 1520 1522 1526 1528 1532 1535 1537 1540 1543 1546 1549 1551 1554 1557 1559 1562 1564 1566 1568 1570 1572 1574 1576 1578 1579 1581 1582 1584 1585 1587 1588 1590 1591 1593 1594 1595 1597 1597 1598 1600 1601 1601 1602 1602 1603 1604 1605 1606
1478 1487 1484 1474 1472 1473 1476 1482 1486 1484 1478 1477 1479 1477 1480 1492 1497 1495 1496 1499 1504 1516 1523 1518 1511 1513 1516 1508 1506 1510 1508 1508 1511 1511 1512 1513 1515 1518 1520 1521 1524 1526 1529 1533 1535 1539 1541 1544 1547 1550 1553 1555 1557 1560 1562 1565 1567 1569 1571 1573 1575 1577 1578 1580 1582 1583 1584 1586 1587 1589 1590 1591 1593 1594 1595 1596 1598 1599 1600 1601 1602 1602 1603 1603 1604 1605
1480 1485 1487 1476 1470 1475 1480 1481 1479 1480 1480 1481 1486 1486 1485 1485 1487 1491 1492 1487 1492 1504 1515 1522 1521 1515 1511 1503 1500 1503 1502 1503 1506 1507 1509 1511 1514 1518 1520 1521 1523 1525 1528 1531 1534 1537 1539 1542 1545 1548 1551 1554 1556 1559 1561 1563 1566 1568 1570 1572 1574 1576 1577 1579 1581 1582 1584 1585 1587 1588 1589 1591 1592 1593 1595 1596 1597 1598 1599 1600 1601 1602 1603 1603 1603 1604
1483 1483 1482 1478 1476 1479 1478 1472 1470 1471 1471 1476 1482 1484 1485 1485 1487 1499 1504 1490 1484 1492 1500 1512 1522 1515 1503 1498 1498 1499 1499 1501 1502 1504 1507 1510 1514 1517 1519 1521 1522 1524 1527 1530 1532 1535 1538 1541 1543 1546 1550 1552 1555 1557 1560 1562 1564 1566 1569 1571 1573 1575 1576 1578 1580 1581 1582 1584 1586 1587 1588 1590 1591 1592 1594 1595 1596 1597 1598 1599 1600 1601 1602 1602 1603 1603
1483 1484 1483 1479 1474 1472 1470 1466 1466 1468 1465 1467 1473 1475 1477 1480 1486 1501 1510 1496 1486 1489 1488 1495 1513 1514 1499 1494 1497 1498 1499 1500 1502 1505 1508 1510 1514 1516 1519 1521 1522 1524 1527 1530 1532 1533 1536 1539 1542 1545 1548 1551 1554 1556 1558 1561 1563 1565 1567 1569 1572 1573 1575 1577 1579 1580 1581 1582 1584 1586 1587 1589 1590 1591 1593 1594 1595 1596 1597 1598 1599 1600 1601 1602 1602 1603
1487 1489 1489 1485 1474 1466 1464 1462 1462 1464 1466 1470 1472 1470 1472 1476 1478 1485 1492 1490 1490 1493 1490 1495 1514 1517 1500 1491 1495 1497 1500 1501 1502 1505 1507 1509 1513 1515 1518 1521 1523 1526 1529 1532 1532 1533 1535 1538 1541 1544 1547 1550 1553 1555 1557 1560 1562 1564 1566 1568 1570 1572 1574 1576 1577 1579 1580 1581 1583 1584 1586 1588 1589 1590 1591 1593 1594 1595 1596 1598 1598 1599 1599 1600 1601 1601
1492 1491 1491 1492 1488 1480 1476 1475 1475 1473 1474 1477 1474 1469 1470 1471 1471 1475 1480 1489 1496 1494 1490 1498 1515 1515 1500 1493 1494 1494 1497 1501 1501 1504 1506 1508 1512 1515 1517 1520 1523 1526 1529 1531 1532 1533 1535 1538 1540 1544 1546 1549 1551 1554 1556 1558 1561 1563 1565 1567 1569 1571 1573 1574 1576 1578 1579 1580 1582 1583 1585 1586 1588 1589 1590 1592 1593 1594 1595 1596 1597 1597 1598 1599 1600 1600
1494 1494 1493 1497 1499 1494 1491 1491 1486 1479 1478 1479 1475 1471 1470 1470 1472 1474 1481 1495 1503 1497 1490 1496 1508 1509 1499 1496 1498 1494 1495 1499 1500 1503 1507 1509 1512 1515 1516 1519 1522 1525 1526 1528 1530 1533 1535 1538 1540 1543 1546 1548 1550 1553 1555 1557 1559 1561 1563 1565 1567 1569 1571 1573 1574 1576 1577 1579 1581 1582 1583 1585 1586 1588 1589 1590 1592 1593 1594 1595 1596 1596 1597 1598 1599 1599
1494 1493 1492 1496 1497 1493 1492 1489 1478 1471 1475 1480 1478 1475 1472 1469 1470 1472 1481 1493 1498 1496 1494 1492 1496 1503 1500 1499 1500 1497 1495 1498 1500 1503 1507 1509 1511 1513 1515 1518 1521 1524 1526 1527 1529 1532 1535 1537 1540 1543 1545 1548 1550 1552 1554 1555 1558 1559 1561 1563 1565 1567 1569 1571 1573 1574 1576 1577 1579 1580 1582 1583 1585 1587 1588 1589 1590 1592 1593 1593 1594 1595 1596 1597 1597 1598
1496 1496 1491 1491 1493 1489 1485 1483 1475 1470 1472 1474 1475 1475 1473 1471 1471 1476 1482 1486 1487 1496 1500 1492 1489 1498 1500 1498 1500 1499 1496 1497 1499 1502 1506 1508 1510 1513 1515 1518 1521 1524 1526 1527 1529 1532 1535 1538 1540 1543 1545 1547 1549 1551 1552 1554 1556 1558 1560 1562 1564 1566 1567 1569 1571 1572 1574 1576 1578 1579 1580 1582 1584 1585 1587 1588 1589 1590 1591 1592 1593 1593 1594 1595 1596 1596
1497 1497 1489 1486 1487 1483 1479 1478 1475 1472 1469 1468 1469 1471 1471 1473 1476 1480 1481 1479 1483 1495 1500 1494 1492 1496 1496 1494 1495 1497 1498 1497 1499 1502 1505 1508 1511 1513 1515 1518 1521 1524 1526 1528 1530 1532 1535 1537 1539 1542 1544 1546 1548 1550 1551 1553 1555 1556 1558 1561 1562 1564 1566 1568 1569 1571 1573 1575 1576 1578 1579 1581 1582 1583 1584 1585 1586 1587 1589 1590 1591 1592 1592 1593 1594 1595
1498 1497 1490 1487 1484 1479 1478 1477 1473 1473 1472 1470 1469 1470 1471 1472 1472 1475 1476 1475 1478 1484 1486 1489 1492 1493 1496 1497 1493 1494 1498 1500 1501 1504 1505 1508 1511 1513 1515 1518 1521 1524 1526 1527 1529 1532 1534 1537 1539 1541 1543 1545 1547 1549 1550 1552 1554 1555 1557 1559 1561 1563 1564 1566 1568 1570 1571 1573 1575 1576 1578 1579 1580 1582 1582 1583 1584 1585 1586 1587 1588 1589 1590 1591 1591 1592
1499 1498 1492 1490 1488 1481 1477 1476 1474 1474 1476 1477 1478 1479 1479 1478 1476 1476 1476 1475 1476 1481 1483 1486 1491 1495 1502 1504 1498 1496 1500 1502 1504 1506 1507 1508 1511 1513 1515 1517 1519 1522 1525 1526 1529 1532 1534 1536 1538 1540 1541 1543 1546 1548 1550 1551 1553 1554 1556 1558 1559 1561 1563 1565 1567 1568 1570 1572 1573 1574 1576 1577 1578 1580 1581 1582 1582 1583 1584 1585 1585 1586 1588 1588 1589 1590
1498 1498 1493 1492 1495 1487 1478 1477 1477 1475 1478 1486 1491 1491 1488 1486 1485 1482 1480 1479 1482 1486 1488 1489 1494 1499 1502 1502 1501 1501 1502 1504 1506 1508 1509 1510 1511 1513 1515 1517 1519 1522 1524 1526 1529 1532 1534 1535 1537 1538 1540 1542 1544 1547 1549 1550 1552 1554 1555 1557 1558 1560 1561 1563 1565 1567 1569 1570 1571 1572 1574 1575 1576 1578 1579 1579 1580 1581 1582 1582 1583 1584 1585 1586 1587 1588
1497 1500 1497 1494 1498 1492 1481 1477 1476 1477 1490 1501 1500 1495 1493 1490 1489 1489 1488 1488 1488 1490 1493 1495 1498 1500 1497 1497 1502 1504 1503 1504 1507 1509 1511 1512 1513 1514 1516 1518 1520 1523 1525 1527 1529 1531 1533 1534 1536 1537 1539 1540 1543 1545 1547 1548 1550 1551 1553 1555 1557 1558 1560 1562 1563 1565 1567 1568 1569 1571 1572 1573 1574 1575 1576 1577 1578 1579 1579 1580 1581 1582 1582 1583 1584 1586
1498 1501 1499 1496 1501 1498 1487 1481 1480 1487 1504 1509 1497 1491 1493 1492 1494 1499 1503 1501 1495 1494 1496 1497 1497 1498 1497 1497 1502 1504 1503 1504 1507 1510 1512 1513 1514 1516 1518 1520 1522 1524 1525 1527 1528 1530 1531 1533 1534 1536 1536 1538 1540 1542 1544 1547 1548 1549 1550 1552 1555 1556 1558 1560 1561 1562 1563 1565 1567 1569 1570 1571 1572 1573 1573 1574 1575 1576 1577 1578 1578 1579 1580 1581 1582 1583
1499 1500 1500 1498 1502 1502 1493 1493 1503 1510 1510 1503 1494 1491 1492 1491 1492 1499 1506 1505 1500 1498 1500 1500 1499 1499 1499 1500 1503 1505 1505 1506 1509 1511 1512 1514 1516 1518 1520 1522 1523 1524 1526 1527 1528 1530 1531 1533 1534 1534 1535 1537 1539 1540 1542 1544 1546 1547 1548 1551 1554 1555 1557 1559 1560 1560 1561 1562 1564 1566 1568 1569 1570 1571 1571 1571 1572 1573 1574 1575 1576 1577 1578 1579 1580 1581
1501 1501 1501 1499 1501 1505 1504 1508 1518 1517 1505 1496 1496 1495 1494 1495 1496 1500 1507 1509 1504 1503 1506 1505 1501 1499 1500 1503 1504 1505 1506 1508 1511 1513 1514 1516 1518 1519 1521 1523 1524 1525 1527 1528 1529 1531 1532 1533 1534 1534 1536 1537 1539 1540 1541 1542 1544 1545 1547 1550 1552 1553 1555 1558 1560 1561 1562 1562 1562 1564 1566 1567 1568 1568 1568 1568 1569 1570 1571 1572 1574 1575 1575 1576 1576 1578
1501 1502 1502 1502 1502 1506 1510 1511 1511 1511 1506 1502 1502 1502 1500 1502 1502 1503 1510 1512 1506 1504 1507 1507 1501 1496 1496 1501 1503 1504 1506 1509 1512 1515 1517 1518 1519 1521 1523 1524 1525 1527 1528 1529 1530 1531 1532 1533 1533 1534 1536 1536 1537 1538 1539 1541 1543 1544 1546 1549 1551 1552 1554 1556 1558 1560 1562 1561 1560 1561 1563 1564 1565 1565 1565 1566 1567 1568 1570 1571 1571 1572 1572 1573 1573 1574
1501 1501 1503 1506 1504 1502 1508 1512 1512 1517 1519 1513 1508 1506 1503 1504 1503 1502 1510 1515 1509 1506 1507 1507 1504 1500 1498 1502 1505 1506 1507 1511 1514 1518 1520 1521 1522 1523 1524 1526 1527 1529 1530 1530 1531 1532 1533 1534 1534 1534 1536 1536 1537 1538 1540 1541 1542 1543 1545 1548 1550 1552 1553 1555 1557 1559 1559 1559 1559 1560 1561 1562 1563 1564 1564 1565 1566 1568 1568 1569 1570 1570 1570 1570 1571 1572
1500 1499 1501 1506 1505 1502 1508 1515 1516 1521 1523 1516 1512 1508 1504 1505 1503 1501 1513 1522 1515 1509 1509 1508 1507 1505 1502 1504 1507 1507 1509 1514 1518 1520 1522 1524 1525 1526 1527 1528 1530 1531 1531 1532 1533 1534 1535 1536 1536 1537 1537 1538 1539 1540 1541 1542 1543 1544 1545 1547 1550 1551 1553 1554 1556 1557 1558 1559 1560 1561 1562 1562 1563 1563 1564 1566 1567 1567 1568 1568 1568 1568 1568 1569 1569 1570
1500 1499 1501 1505 1505 1502 1505 1510 1515 1521 1522 1517 1513 1509 1506 1506 1502 1504 1520 1527 1517 1512 1513 1511 1510 1510 1507 1506 1509 1508 1510 1516 1520 1522 1524 1525 1527 1528 1529 1530 1531 1533 1534 1535 1536 1537 1538 1538 1539 1541 1541 1541 1542 1543 1545 1546 1546 1547 1547 1549 1551 1552 1552 1554 1555 1557 1558 1559 1560 1562 1563 1563 1563 1563 1564 1565 1566 1567 1567 1567 1567 1567 1568 1569 1570 1570
1500 1500 1501 1502 1502 1502 1504 1511 1518 1522 1520 1516 1514 1511 1508 1506 1507 1513 1525 1527 1518 1515 1516 1514 1513 1513 1511 1511 1512 1512 1514 1518 1520 1523 1525 1526 1528 1530 1532 1533 1534 1535 1537 1538 1539 1540 1541 1542 1542 1543 1544 1544 1545 1547 1548 1548 1549 1549 1550 1551 1552 1553 1553 1554 1556 1557 1558 1558 1560 1563 1565 1565 1564 1563 1564 1565 1566 1566 1567 1567 1567 1568 1570 1571 1571 1571
1504 1503 1501 1500 1503 1504 1505 1512 1524 1527 1521 1517 1516 1513 1508 1509 1517 1524 1526 1524 1521 1519 1519 1518 1516 1515 1515 1516 1517 1518 1519 1520 1522 1524 1526 1528 1530 1533 1535 1536 1538 1538 1539 1541 1542 1542 1543 1544 1544 1545 1546 1547 1549 1549 1550 1551 1551 1551 1552 1553 1554 1555 1556 1557 1558 1558 1559 1559 1561 1564 1566 1565 1564 1564 1564 1566 1567 1567 1567 1568 1569 1569 1570 1571 1571 1571
1508 1509 1506 1503 1506 1507 1505 1514 1529 1533 1525 1518 1516 1515 1515 1519 1526 1529 1525 1523 1523 1521 1520 1521 1519 1518 1519 1521 1521 1522 1522 1522 1524 1527 1528 1529 1532 1535 1537 1538 1539 1541 1542 1543 1544 1544 1546 1547 1547 1548 1549 1551 1552 1552 1552 1553 1553 1553 1554 1555 1555 1556 1558 1559 1559 1560 1561 1562 1564 1566 1566 1566 1565 1566 1567 1567 1568 1568 1568 1569 1570 1570 1570 1571 1571 1572
1511 1512 1511 1510 1513 1517 1518 1524 1532 1531 1525 1521 1521 1522 1525 1527 1528 1528 1526 1524 1523 1522 1522 1521 1521 1521 1522 1523 1524 1525 1525 1526 1528 1529 1530 1531 1533 1536 1539 1540 1542 1543 1544 1546 1547 1548 1549 1551 1551 1551 1553 1554 1554 1554 1554 1554 1554 1555 1556 1556 1557 1557 1559 1560 1560 1560 1562 1564 1566 1566 1567 1567 1568 1568 1568 1568 1569 1569 1569 1570 1570 1571 1571 1572 1573 1574
1514 1514 1515 1515 1518 1522 1526 1528 1529 1528 1526 1526 1526 1527 1529 1529 1529 1528 1528 1526 1525 1524 1523 1522 1523 1524 1524 1525 1528 1529 1529 1529 1530 1530 1531 1533 1534 1537 1540 1542 1544 1546 1547 1548 1550 1551 1553 1554 1554 1554 1555 1556 1555 1555 1555 1555 1556 1557 1557 1558 1558 1559 1560 1561 1562 1562 1563 1565 1567 1567 1568 1568 1569 1569 1569 1569 1569 1569 1570 1570 1571 1571 1571 1572 1573 1573
1515 1515 1515 1516 1518 1521 1525 1527 1527 1528 1528 1528 1529 1530 1530 1530 1530 1529 1528 1528 1527 1526 1525 1525 1525 1525 1525 1527 1529 1529 1529 1530 1531 1532 1533 1534 1536 1538 1541 1544 1546 1548 1549 1550 1552 1553 1555 1556 1556 1557 1557 1557 1557 1557 1556 1557 1558 1558 1559 1559 1560 1560 1561 1562 1563 1563 1564 1566 1566 1567 1568 1569 1570 1569 1569 1569 1569 1570 1571 1571 1571 1571 1571 1572 1573 1573
1515 1516 1514 1514 1517 1523 1528 1528 1527 1529 1530 1529 1530 1531 1531 1531 1531 1531 1530 1530 1529 1528 1527 1527 1527 1527 1527 1528 1529 1529 1530 1531 1532 1534 1535 1536 1538 1539 1541 1544 1547 1549 1551 1552 1554 1555 1557 1557 1558 1559 1559 1558 1559 1558 1558 1558 1559 1559 1560 1560 1561 1561 1561 1562 1563 1563 1564 1565 1566 1566 1567 1569 1570 1570 1570 1570 1571 1572 1572 1572 1571 1571 1572 1572 1573 1573
1514 1516 1515 1514 1518 1525 1530 1530 1529 1530 1532 1531 1531 1532 1533 1533 1533 1532 1532 1532 1531 1530 1530 1529 1529 1529 1530 1530 1530 1531 1532 1533 1535 1536 1537 1538 1540 1541 1541 1543 1545 1548 1551 1553 1555 1556 1558 1559 1559 1559 1559 1559 1559 1559 1559 1559 1559 1560 1561 1561 1561 1561 1561 1561 1562 1562 1563 1565 1566 1566 1566 1567 1568 1569 1570 1570 1571 1571 1571 1571 1571 1572 1572 1572 1572 1572
1515 1516 1515 1515 1520 1526 1529 1529 1529 1531 1533 1533 1534 1535 1535 1535 1535 1534 1534 1533 1533 1532 1532 1531 1531 1532 1532 1533 1533 1534 1534 1535 1536 1537 1538 1539 1541 1542 1542 1543 1544 1547 1550 1553 1554 1556 1557 1559 1560 1560 1559 1559 1559 1559 1559 1559 1560 1560 1561 1561 1561 1561 1561 1561 1561 1562 1563 1564 1565 1565 1566 1567 1568 1568 1569 1570 1570 1569 1569 1570 1570 1571 1571 1571 1571 1571
1516 1518 1517 1519 1526 1531 1531 1529 1530 1532 1534 1535 1536 1536 1537 1536 1536 1536 1535 1535 1534 1534 1534 1534 1534 1534 1534 1535 1535 1536 1536 1537 1537 1538 1539 1540 1540 1541 1542 1542 1543 1545 1547 1550 1553 1554 1556 1559 1560 1560 1560 1559 1559 1560 1560 1560 1560 1560 1560 1560 1560 1561 1561 1561 1562 1562 1563 1564 1564 1565 1565 1566 1567 1567 1568 1569 1570 1569 1569 1570 1570 1569 1569 1569 1570 1571
1519 1522 1522 1523 1529 1532 1532 1531 1532 1533 1535 1536 1536 1537 1537 1537 1537 1537 1537 1536 1536 1536 1536 1535 1536 1536 1536 1536 1536 1537 1537 1538 1538 1539 1540 1540 1541 1542 1542 1542 1543 1545 1546 1548 1550 1553 1556 1558 1559 1560 1560 1559 1559 1560 1560 1560 1560 1560 1560 1560 1560 1561 1561 1562 1562 1563 1563 1563 1563 1564 1564 1566 1566 1566 1567 1569 1569 1569 1569 1569 1569 1569 1568 1568 1569 1569